AWC92J LIBD-LYBE

Flight info

Callsign AWC92J
Flight time 1h 3m
Altitude 18000
Route VURKE Z748 CRAYE/N0401F190 W36 POD/N0408F200 N732 TORTO/N0402F190 P129 ELGEB
Aircraft A320/M-SDE3FGHIRWY/LB1

Departure

Time 2026-04-23 18:40
Airport Bari Karol Wojtyła International Airport (LIBD)

Arrival

Time 2026-04-23 19:43
Airport Belgrade Nikola Tesla Airport (LYBE)
Time Latitude Longitude Altitude Speed Heading
2026-04-23 18:22 41.13510 16.76294 137 ft 0 kts 159°
2026-04-23 18:32 41.13531 16.76283 137 ft 4 kts 154°
2026-04-23 18:32 41.13554 16.76265 137 ft 4 kts 140°
2026-04-23 18:32 41.13570 16.76241 137 ft 4 kts 96°
2026-04-23 18:33 41.13570 16.76227 137 ft 0 kts 69°
2026-04-23 18:34 41.13570 16.76228 136 ft 0 kts 69°
2026-04-23 18:35 41.13573 16.76238 136 ft 2 kts 69°
2026-04-23 18:35 41.13581 16.76267 136 ft 4 kts 69°
2026-04-23 18:35 41.13595 16.76315 136 ft 7 kts 69°
2026-04-23 18:35 41.13614 16.76382 136 ft 9 kts 69°
2026-04-23 18:36 41.13639 16.76468 136 ft 11 kts 69°
2026-04-23 18:36 41.13695 16.76547 136 ft 13 kts 27°
2026-04-23 18:36 41.13746 16.76561 136 ft 8 kts 347°
2026-04-23 18:36 41.13796 16.76545 135 ft 7 kts 15°
2026-04-23 18:37 41.13826 16.76619 134 ft 11 kts 67°
2026-04-23 18:37 41.13862 16.76739 126 ft 18 kts 69°
2026-04-23 18:37 41.13910 16.76912 121 ft 22 kts 70°
2026-04-23 18:37 41.13966 16.77113 121 ft 24 kts 70°
2026-04-23 18:38 41.14011 16.77283 122 ft 12 kts 70°
2026-04-23 18:38 41.14027 16.77343 122 ft 5 kts 69°
2026-04-23 18:38 41.14061 16.77386 119 ft 9 kts 25°
2026-04-23 18:38 41.14112 16.77409 118 ft 6 kts 17°
2026-04-23 18:39 41.14147 16.77420 119 ft 7 kts
2026-04-23 18:39 41.14204 16.77413 115 ft 8 kts 343°
2026-04-23 18:39 41.14226 16.77366 116 ft 6 kts 244°
2026-04-23 18:39 41.14205 16.77311 116 ft 8 kts 249°
2026-04-23 18:40 41.14132 16.77053 122 ft 63 kts 250°
2026-04-23 18:40 41.13903 16.76242 128 ft 122 kts 249°
2026-04-23 18:40 41.13569 16.75001 242 ft 154 kts 253°
2026-04-23 18:40 41.13238 16.73647 794 ft 155 kts 256°
2026-04-23 18:41 41.12862 16.72309 1443 ft 155 kts 257°
2026-04-23 18:41 41.12485 16.71000 2078 ft 153 kts 257°
2026-04-23 18:41 41.12102 16.69677 2601 ft 154 kts 253°
2026-04-23 18:41 41.11717 16.68355 3095 ft 154 kts 256°
2026-04-23 18:42 41.11326 16.67007 3484 ft 164 kts 255°
2026-04-23 18:42 41.10895 16.65496 3706 ft 186 kts 254°
2026-04-23 18:42 41.10408 16.63788 3948 ft 210 kts 254°
2026-04-23 18:42 41.09862 16.61890 4367 ft 226 kts 253°
2026-04-23 18:43 41.09292 16.59923 5101 ft 231 kts 254°
2026-04-23 18:43 41.08816 16.57826 5584 ft 250 kts 251°
2026-04-23 18:43 41.07713 16.55918 5956 ft 277 kts 214°
2026-04-23 18:43 41.05854 16.55098 6448 ft 294 kts 179°
2026-04-23 18:44 41.03837 16.55714 6781 ft 308 kts 147°
2026-04-23 18:44 41.02262 16.57685 7059 ft 322 kts 117°
2026-04-23 18:44 41.01587 16.60540 7257 ft 336 kts 90°
2026-04-23 18:44 41.01993 16.63626 7498 ft 349 kts 67°
2026-04-23 18:45 41.03070 16.66545 8056 ft 355 kts 59°
2026-04-23 18:45 41.04292 16.69270 8733 ft 358 kts 58°
2026-04-23 18:45 41.05534 16.72131 9438 ft 362 kts 60°
2026-04-23 18:45 41.06684 16.75123 10106 ft 367 kts 63°
2026-04-23 18:46 41.07723 16.78232 10733 ft 370 kts 66°
2026-04-23 18:46 41.08676 16.81420 11355 ft 374 kts 67°
2026-04-23 18:46 41.09586 16.84662 11991 ft 377 kts 68°
2026-04-23 18:46 41.10489 16.87945 12630 ft 379 kts 68°
2026-04-23 18:47 41.11401 16.91239 13290 ft 382 kts 68°
2026-04-23 18:47 41.12331 16.94552 13967 ft 385 kts 68°
2026-04-23 18:47 41.13280 16.97887 14565 ft 387 kts 68°
2026-04-23 18:47 41.14239 17.01240 15149 ft 389 kts 67°
2026-04-23 18:48 41.15189 17.04556 15713 ft 391 kts 67°
2026-04-23 18:48 41.16159 17.07942 16285 ft 393 kts 68°
2026-04-23 18:48 41.17134 17.11342 16826 ft 395 kts 68°
2026-04-23 18:48 41.18084 17.14783 17345 ft 398 kts 71°
2026-04-23 18:49 41.18691 17.18387 17862 ft 403 kts 79°
2026-04-23 18:49 41.19066 17.22073 18065 ft 403 kts 80°
2026-04-23 18:49 41.19442 17.25784 18098 ft 407 kts 80°
2026-04-23 18:49 41.19820 17.29513 18103 ft 408 kts 80°
2026-04-23 18:50 41.19949 17.30779 18101 ft 408 kts 80°
2026-04-23 18:50 41.20453 17.35721 18091 ft 408 kts 80°
2026-04-23 18:50 41.20834 17.39452 18092 ft 408 kts 80°
2026-04-23 18:50 41.21211 17.43187 18092 ft 408 kts 80°
2026-04-23 18:51 41.21587 17.46929 18092 ft 408 kts 80°
2026-04-23 18:51 41.21963 17.50666 18096 ft 408 kts 80°
2026-04-23 18:51 41.22506 17.54352 18093 ft 406 kts 70°
2026-04-23 18:51 41.23732 17.57704 18090 ft 404 kts 57°
2026-04-23 18:52 41.25244 17.60855 18069 ft 404 kts 57°
2026-04-23 18:52 41.26770 17.64002 18070 ft 404 kts 57°
2026-04-23 18:52 41.28296 17.67140 18071 ft 404 kts 57°
2026-04-23 18:52 41.29801 17.70231 18073 ft 404 kts 57°
2026-04-23 18:53 41.31271 17.73266 18078 ft 404 kts 57°
2026-04-23 18:53 41.32788 17.76408 18086 ft 404 kts 57°
2026-04-23 18:53 41.34306 17.79558 18080 ft 404 kts 57°
2026-04-23 18:53 41.35822 17.82707 18076 ft 404 kts 57°
2026-04-23 18:54 41.37337 17.85858 18068 ft 404 kts 57°
2026-04-23 18:54 41.38855 17.89017 18066 ft 404 kts 57°
2026-04-23 18:54 41.40369 17.92172 18065 ft 404 kts 57°
2026-04-23 18:54 41.41881 17.95331 18066 ft 405 kts 57°
2026-04-23 18:55 41.43393 17.98497 18066 ft 405 kts 57°
2026-04-23 18:55 41.44906 18.01664 18065 ft 405 kts 57°
2026-04-23 18:55 41.46415 18.04827 18061 ft 405 kts 57°
2026-04-23 18:55 41.47927 18.07995 18061 ft 404 kts 57°
2026-04-23 18:56 41.49449 18.11156 18059 ft 404 kts 55°
2026-04-23 18:56 41.51197 18.14030 18058 ft 404 kts 46°
2026-04-23 18:56 41.53236 18.16615 18055 ft 405 kts 44°
2026-04-23 18:56 41.55298 18.19183 18055 ft 405 kts 44°
2026-04-23 18:57 41.57355 18.21752 18048 ft 405 kts 44°
2026-04-23 18:57 41.59410 18.24333 18051 ft 405 kts 44°
2026-04-23 18:57 41.61461 18.26914 18053 ft 405 kts 44°
2026-04-23 18:57 41.63512 18.29496 18053 ft 405 kts 44°
2026-04-23 18:58 41.65569 18.32081 18051 ft 405 kts 44°
2026-04-23 18:58 41.67624 18.34667 18052 ft 405 kts 44°
2026-04-23 18:58 41.69674 18.37252 18051 ft 405 kts 44°
2026-04-23 18:58 41.71722 18.39839 18051 ft 405 kts 44°
2026-04-23 18:59 41.73776 18.42427 18044 ft 405 kts 44°
2026-04-23 18:59 41.75828 18.45025 18051 ft 406 kts 44°
2026-04-23 18:59 41.77862 18.47644 18050 ft 406 kts 45°
2026-04-23 18:59 41.79886 18.50279 18050 ft 406 kts 45°
2026-04-23 19:00 41.81909 18.52925 18049 ft 406 kts 45°
2026-04-23 19:00 41.83927 18.55571 18049 ft 406 kts 45°
2026-04-23 19:00 41.85951 18.58219 18047 ft 406 kts 45°
2026-04-23 19:00 41.87992 18.60835 18047 ft 406 kts 44°
2026-04-23 19:01 41.90084 18.63384 18034 ft 407 kts 43°
2026-04-23 19:01 41.92181 18.65865 18038 ft 407 kts 42°
2026-04-23 19:01 41.94304 18.68380 18038 ft 407 kts 43°
2026-04-23 19:01 41.96400 18.70952 18035 ft 408 kts 44°
2026-04-23 19:02 41.98468 18.73567 18034 ft 408 kts 44°
2026-04-23 19:02 42.00520 18.76208 18036 ft 408 kts 45°
2026-04-23 19:02 42.02562 18.78857 18056 ft 408 kts 45°
2026-04-23 19:02 42.04602 18.81505 18055 ft 408 kts 45°
2026-04-23 19:03 42.06649 18.84153 18035 ft 408 kts 45°
2026-04-23 19:03 42.08698 18.86791 18036 ft 408 kts 45°
2026-04-23 19:03 42.10749 18.89426 18031 ft 408 kts 45°
2026-04-23 19:03 42.12808 18.92069 18033 ft 409 kts 45°
2026-04-23 19:04 42.14865 18.94711 18032 ft 409 kts 45°
2026-04-23 19:04 42.16926 18.97361 18034 ft 409 kts 45°
2026-04-23 19:04 42.18986 19.00007 18025 ft 409 kts 44°
2026-04-23 19:04 42.21045 19.02659 18027 ft 409 kts 45°
2026-04-23 19:05 42.23102 19.05315 18018 ft 409 kts 45°
2026-04-23 19:05 42.25137 19.07945 18016 ft 409 kts 45°
2026-04-23 19:05 42.27191 19.10602 18019 ft 409 kts 45°
2026-04-23 19:05 42.29247 19.13266 18018 ft 409 kts 45°
2026-04-23 19:06 42.31297 19.15926 18019 ft 409 kts 45°
2026-04-23 19:06 42.33347 19.18593 18019 ft 409 kts 45°
2026-04-23 19:06 42.35390 19.21251 18020 ft 409 kts 45°
2026-04-23 19:06 42.37482 19.23859 18049 ft 409 kts 40°
2026-04-23 19:07 42.39840 19.26020 18032 ft 411 kts 31°
2026-04-23 19:07 42.42439 19.27651 18040 ft 413 kts 25°
2026-04-23 19:07 42.45089 19.29156 18040 ft 413 kts 25°
2026-04-23 19:07 42.47738 19.30664 18044 ft 412 kts 25°
2026-04-23 19:08 42.50382 19.32170 18047 ft 413 kts 25°
2026-04-23 19:08 42.53032 19.33682 18053 ft 413 kts 25°
2026-04-23 19:08 42.55673 19.35193 18049 ft 412 kts 25°
2026-04-23 19:08 42.58319 19.36709 18043 ft 412 kts 25°
2026-04-23 19:09 42.60962 19.38221 18046 ft 412 kts 25°
2026-04-23 19:09 42.63604 19.39732 18054 ft 411 kts 25°
2026-04-23 19:09 42.66242 19.41250 18065 ft 412 kts 25°
2026-04-23 19:09 42.68883 19.42775 18076 ft 413 kts 25°
2026-04-23 19:10 42.71528 19.44299 18091 ft 413 kts 25°
2026-04-23 19:10 42.74178 19.45824 18086 ft 413 kts 25°
2026-04-23 19:10 42.76789 19.47324 18096 ft 413 kts 25°
2026-04-23 19:10 42.79437 19.48848 18103 ft 413 kts 25°
2026-04-23 19:11 42.82081 19.50376 18103 ft 413 kts 25°
2026-04-23 19:11 42.84725 19.51907 18108 ft 413 kts 25°
2026-04-23 19:11 42.87368 19.53439 18106 ft 413 kts 25°
2026-04-23 19:11 42.90015 19.54970 18106 ft 413 kts 25°
2026-04-23 19:12 42.91801 19.56003 18096 ft 413 kts 25°
2026-04-23 19:12 42.95396 19.57702 18103 ft 415 kts 15°
2026-04-23 19:12 42.98251 19.58364 18108 ft 416 kts 11°
2026-04-23 19:12 43.01115 19.58953 18111 ft 416 kts 11°
2026-04-23 19:13 43.03974 19.59547 18115 ft 416 kts 11°
2026-04-23 19:13 43.06831 19.60152 18115 ft 416 kts 11°
2026-04-23 19:13 43.09691 19.60762 18114 ft 416 kts 11°
2026-04-23 19:13 43.12547 19.61376 18113 ft 416 kts 11°
2026-04-23 19:14 43.15402 19.61995 18112 ft 415 kts 11°
2026-04-23 19:14 43.18256 19.62614 18105 ft 414 kts 11°
2026-04-23 19:14 43.21107 19.63230 18105 ft 415 kts 11°
2026-04-23 19:14 43.23959 19.63840 18106 ft 415 kts 11°
2026-04-23 19:15 43.26817 19.64451 18107 ft 415 kts 11°
2026-04-23 19:15 43.29668 19.65058 18100 ft 415 kts 11°
2026-04-23 19:15 43.32519 19.65663 18101 ft 415 kts 11°
2026-04-23 19:15 43.35368 19.66271 18102 ft 414 kts 11°
2026-04-23 19:16 43.38221 19.66884 18094 ft 414 kts 11°
2026-04-23 19:16 43.41033 19.67489 18093 ft 414 kts 11°
2026-04-23 19:16 43.43880 19.68105 18095 ft 415 kts 11°
2026-04-23 19:17 43.49581 19.69338 18099 ft 415 kts 11°
2026-04-23 19:17 43.52439 19.69955 18090 ft 415 kts 11°
2026-04-23 19:17 43.55299 19.70570 18092 ft 416 kts 11°
2026-04-23 19:17 43.58156 19.71186 18089 ft 416 kts 11°
2026-04-23 19:18 43.61011 19.71808 18089 ft 416 kts 11°
2026-04-23 19:18 43.63863 19.72447 18088 ft 415 kts 13°
2026-04-23 19:18 43.66631 19.73547 18082 ft 413 kts 22°
2026-04-23 19:18 43.69210 19.75280 18086 ft 412 kts 32°
2026-04-23 19:19 43.73916 19.79793 18085 ft 411 kts 36°
2026-04-23 19:19 43.76252 19.82063 18085 ft 411 kts 36°
2026-04-23 19:20 43.80908 19.86589 18082 ft 411 kts 36°
2026-04-23 19:20 43.83250 19.88872 18080 ft 411 kts 35°
2026-04-23 19:20 43.85585 19.91157 18075 ft 411 kts 35°
2026-04-23 19:20 43.87919 19.93447 18077 ft 411 kts 36°
2026-04-23 19:21 43.90250 19.95743 18079 ft 411 kts 36°
2026-04-23 19:21 43.94913 20.00337 18070 ft 411 kts 36°
2026-04-23 19:21 43.97242 20.02630 18069 ft 410 kts 36°
2026-04-23 19:22 43.99573 20.04924 18058 ft 410 kts 35°
2026-04-23 19:22 44.01902 20.07214 18056 ft 411 kts 35°
2026-04-23 19:22 44.06570 20.11810 18050 ft 411 kts 36°
2026-04-23 19:23 44.08898 20.14114 18057 ft 411 kts 36°
2026-04-23 19:23 44.11270 20.16354 18054 ft 411 kts 31°
2026-04-23 19:23 44.13849 20.18049 18048 ft 412 kts 21°
2026-04-23 19:24 44.19502 20.19399 18043 ft 416 kts
2026-04-23 19:24 44.22364 20.19468 18047 ft 416 kts
2026-04-23 19:24 44.28133 20.19632 18081 ft 413 kts
2026-04-23 19:25 44.33874 20.19809 18075 ft 411 kts
2026-04-23 19:25 44.39258 20.19960 17852 ft 357 kts
2026-04-23 19:26 44.43845 20.20082 17577 ft 305 kts
2026-04-23 19:26 44.45896 20.20139 17416 ft 286 kts
2026-04-23 19:27 44.49764 20.20254 16440 ft 273 kts
2026-04-23 19:27 44.55391 20.20434 14803 ft 266 kts
2026-04-23 19:28 44.59066 20.20543 13741 ft 262 kts
2026-04-23 19:28 44.62654 20.20913 12588 ft 256 kts 16°
2026-04-23 19:29 44.64284 20.21890 12061 ft 254 kts 30°
2026-04-23 19:29 44.67248 20.24485 10994 ft 251 kts 30°
2026-04-23 19:30 44.69785 20.27710 9970 ft 253 kts 64°
2026-04-23 19:30 44.70034 20.30171 9403 ft 264 kts 95°
2026-04-23 19:30 44.68333 20.34800 8331 ft 271 kts 119°
2026-04-23 19:31 44.67326 20.37033 7782 ft 270 kts 119°
2026-04-23 19:31 44.66327 20.39264 7247 ft 269 kts 118°
2026-04-23 19:31 44.65330 20.41501 6861 ft 271 kts 118°
2026-04-23 19:31 44.64335 20.43736 6585 ft 270 kts 119°
2026-04-23 19:32 44.63339 20.45971 6266 ft 270 kts 119°
2026-04-23 19:32 44.62345 20.48197 5955 ft 269 kts 119°
2026-04-23 19:32 44.61354 20.50412 5641 ft 268 kts 118°
2026-04-23 19:32 44.60366 20.52620 5296 ft 267 kts 118°
2026-04-23 19:33 44.59379 20.54826 5006 ft 266 kts 119°
2026-04-23 19:33 44.58399 20.57017 4716 ft 264 kts 119°
2026-04-23 19:33 44.56449 20.61365 4048 ft 263 kts 119°
2026-04-23 19:34 44.55472 20.63535 3742 ft 262 kts 119°
2026-04-23 19:34 44.54548 20.65715 3572 ft 259 kts 109°
2026-04-23 19:34 44.54512 20.70438 3317 ft 240 kts 60°
2026-04-23 19:35 44.55426 20.72283 3191 ft 231 kts 37°
2026-04-23 19:35 44.56748 20.73481 3066 ft 224 kts 16°
2026-04-23 19:35 44.58254 20.73894 2932 ft 220 kts 357°
2026-04-23 19:35 44.59742 20.73521 2804 ft 217 kts 338°
2026-04-23 19:36 44.61022 20.72434 2676 ft 217 kts 318°
2026-04-23 19:36 44.62023 20.70856 2759 ft 218 kts 312°
2026-04-23 19:36 44.63012 20.69237 2907 ft 219 kts 313°
2026-04-23 19:36 44.64012 20.67616 3055 ft 221 kts 312°
2026-04-23 19:37 44.65020 20.65980 3094 ft 221 kts 312°
2026-04-23 19:37 44.66002 20.64384 3095 ft 209 kts 312°
2026-04-23 19:37 44.66925 20.62879 3098 ft 201 kts 312°
2026-04-23 19:37 44.67540 20.61878 3104 ft 200 kts 313°
2026-04-23 19:38 44.68530 20.60341 3114 ft 230 kts 313°
2026-04-23 19:38 44.69513 20.58532 3100 ft 229 kts 306°
2026-04-23 19:38 44.70349 20.56707 3101 ft 215 kts 305°
2026-04-23 19:38 44.71116 20.54984 3103 ft 200 kts 305°
2026-04-23 19:39 44.71840 20.53363 3105 ft 197 kts 305°
2026-04-23 19:39 44.72571 20.51732 3104 ft 195 kts 306°
2026-04-23 19:39 44.73269 20.50167 3101 ft 184 kts 306°
2026-04-23 19:39 44.73947 20.48652 2993 ft 182 kts 306°
2026-04-23 19:40 44.74615 20.47156 2801 ft 180 kts 306°
2026-04-23 19:40 44.75275 20.45678 2604 ft 175 kts 306°
2026-04-23 19:40 44.75919 20.44234 2358 ft 173 kts 305°
2026-04-23 19:40 44.76550 20.42819 2105 ft 166 kts 306°
2026-04-23 19:41 44.77137 20.41500 1892 ft 151 kts 305°
2026-04-23 19:41 44.77618 20.40419 1719 ft 142 kts 304°
2026-04-23 19:41 44.78114 20.39307 1540 ft 138 kts 304°
2026-04-23 19:41 44.78621 20.38170 1352 ft 136 kts 304°
2026-04-23 19:42 44.79124 20.37041 1161 ft 137 kts 302°
2026-04-23 19:42 44.79623 20.35919 973 ft 137 kts 301°
2026-04-23 19:42 44.80142 20.34754 810 ft 137 kts 300°
2026-04-23 19:42 44.80645 20.33629 616 ft 136 kts 298°
2026-04-23 19:43 44.81140 20.32501 420 ft 136 kts 298°
2026-04-23 19:43 44.81627 20.31398 308 ft 123 kts 299°
2026-04-23 19:43 44.82000 20.30550 305 ft 80 kts 302°
2026-04-23 19:43 44.82164 20.30155 305 ft 19 kts 279°
2026-04-23 19:44 44.82166 20.29976 307 ft 19 kts 269°
2026-04-23 19:44 44.82169 20.29789 308 ft 18 kts 272°
2026-04-23 19:44 44.82117 20.29660 308 ft 15 kts 212°
2026-04-23 19:44 44.82040 20.29591 308 ft 14 kts 212°
2026-04-23 19:45 44.81962 20.29522 307 ft 9 kts 216°
2026-04-23 19:45 44.81962 20.29441 307 ft 11 kts 317°
2026-04-23 19:45 44.82000 20.29382 307 ft 5 kts 302°
2026-04-23 19:45 44.82014 20.29351 307 ft 0 kts 302°